Time,TemperatureF,DewpointF,PressureIn,WindDirection,WindDirectionDegrees,WindSpeedMPH,WindSpeedGustMPH,Humidity,HourlyPrecipIn,Conditions,Clouds,dailyrainin,SoftwareType,DateUTC
2013-05-06 00:00:00,51.8,45.5,30.33,WSW,248,1.6,1.6,79,0.00,,,0.00,WUHU216HW,2013-05-06 05:00:00,
2013-05-06 00:05:00,51.8,45.5,30.33,WSW,248,1.6,1.6,79,0.00,,,0.00,WUHU216HW,2013-05-06 05:05:00,
2013-05-06 00:30:00,51.5,45.2,30.33,WSW,248,1.1,1.1,79,0.00,,,0.00,WUHU216HW,2013-05-06 05:30:00,
2013-05-06 00:35:00,51.5,45.2,30.33,WSW,248,1.1,1.1,79,0.00,,,0.00,WUHU216HW,2013-05-06 05:35:00,
2013-05-06 01:00:00,51.1,45.2,30.33,WSW,248,1.8,1.8,80,0.00,,,0.00,WUHU216HW,2013-05-06 06:00:00,
2013-05-06 01:05:00,51.1,45.2,30.33,WSW,248,1.8,1.8,80,0.00,,,0.00,WUHU216HW,2013-05-06 06:05:00,
2013-05-06 01:30:00,50.4,44.5,30.33,SW,225,0.0,0.0,80,0.00,,,0.00,WUHU216HW,2013-05-06 06:30:00,
2013-05-06 01:35:00,50.4,44.5,30.33,SW,225,0.0,0.0,80,0.00,,,0.00,WUHU216HW,2013-05-06 06:35:00,
2013-05-06 02:00:00,50.2,44.6,30.33,WSW,248,2.0,2.0,81,0.00,,,0.00,WUHU216HW,2013-05-06 07:00:00,
2013-05-06 02:05:00,50.2,44.6,30.33,WSW,248,2.0,2.0,81,0.00,,,0.00,WUHU216HW,2013-05-06 07:05:00,
2013-05-06 02:30:00,49.3,44.0,30.32,West,270,1.1,1.1,82,0.00,,,0.00,WUHU216HW,2013-05-06 07:30:00,
2013-05-06 02:35:00,49.3,44.0,30.32,West,270,1.1,1.1,82,0.00,,,0.00,WUHU216HW,2013-05-06 07:35:00,
2013-05-06 03:00:00,49.3,44.0,30.32,West,270,2.5,2.5,82,0.00,,,0.00,WUHU216HW,2013-05-06 08:00:00,
2013-05-06 03:05:00,49.3,44.0,30.32,West,270,2.5,2.5,82,0.00,,,0.00,WUHU216HW,2013-05-06 08:05:00,
2013-05-06 03:30:00,49.1,44.1,30.32,West,270,0.4,0.4,83,0.00,,,0.00,WUHU216HW,2013-05-06 08:30:00,
2013-05-06 03:35:00,49.1,44.1,30.32,West,270,0.4,0.4,83,0.00,,,0.00,WUHU216HW,2013-05-06 08:35:00,
2013-05-06 03:59:00,49.1,44.1,30.33,WSW,248,1.3,1.3,83,0.00,,,0.00,WUHU216HW,2013-05-06 08:59:00,
2013-05-06 04:00:00,49.1,44.1,30.33,WSW,248,1.3,1.3,83,0.00,,,0.00,WUHU216HW,2013-05-06 09:00:00,
2013-05-06 04:05:00,49.1,44.1,30.33,WSW,248,1.3,1.3,83,0.00,,,0.00,WUHU216HW,2013-05-06 09:05:00,
2013-05-06 04:30:00,48.6,43.7,30.33,SW,225,2.0,2.0,83,0.00,,,0.00,WUHU216HW,2013-05-06 09:30:00,
2013-05-06 04:35:00,48.6,43.7,30.33,SW,225,2.0,2.0,83,0.00,,,0.00,WUHU216HW,2013-05-06 09:35:00,
2013-05-06 04:59:00,48.1,43.1,30.33,WSW,248,1.6,1.6,83,0.00,,,0.00,WUHU216HW,2013-05-06 09:59:00,
2013-05-06 05:00:00,48.1,43.1,30.33,WSW,248,1.6,1.6,83,0.00,,,0.00,WUHU216HW,2013-05-06 10:00:00,
2013-05-06 05:05:00,48.1,43.1,30.33,WSW,248,1.6,1.6,83,0.00,,,0.00,WUHU216HW,2013-05-06 10:05:00,
2013-05-06 05:30:00,47.5,42.6,30.33,SW,225,0.0,0.0,83,0.00,,,0.00,WUHU216HW,2013-05-06 10:30:00,
2013-05-06 05:35:00,47.5,42.6,30.33,SW,225,0.0,0.0,83,0.00,,,0.00,WUHU216HW,2013-05-06 10:35:00,
2013-05-06 05:59:00,46.8,42.2,30.34,WSW,248,0.0,0.0,84,0.00,,,0.00,WUHU216HW,2013-05-06 10:59:00,
2013-05-06 06:00:00,46.8,42.2,30.34,WSW,248,0.0,0.0,84,0.00,,,0.00,WUHU216HW,2013-05-06 11:00:00,
2013-05-06 06:05:00,46.8,42.2,30.34,WSW,248,0.0,0.0,84,0.00,,,0.00,WUHU216HW,2013-05-06 11:05:00,
2013-05-06 07:00:00,46.6,42.4,30.35,SW,225,1.3,1.3,85,0.00,,,0.00,WUHU216HW,2013-05-06 12:00:00,
2013-05-06 07:05:00,46.6,42.4,30.35,SW,225,1.3,1.3,85,0.00,,,0.00,WUHU216HW,2013-05-06 12:05:00,
2013-05-06 07:30:00,47.9,43.6,30.36,WSW,248,0.0,0.0,85,0.00,,,0.00,WUHU216HW,2013-05-06 12:30:00,
2013-05-06 07:35:00,47.9,43.6,30.36,WSW,248,0.0,0.0,85,0.00,,,0.00,WUHU216HW,2013-05-06 12:35:00,
2013-05-06 08:00:00,49.3,44.3,30.36,West,270,1.8,1.8,83,0.00,,,0.00,WUHU216HW,2013-05-06 13:00:00,
2013-05-06 08:05:00,49.3,44.3,30.36,West,270,1.8,1.8,83,0.00,,,0.00,WUHU216HW,2013-05-06 13:05:00,
2013-05-06 08:30:00,50.9,45.9,30.36,West,270,0.9,0.9,83,0.00,,,0.00,WUHU216HW,2013-05-06 13:30:00,
2013-05-06 08:35:00,50.9,45.9,30.36,West,270,0.9,0.9,83,0.00,,,0.00,WUHU216HW,2013-05-06 13:35:00,
2013-05-06 08:59:00,53.1,47.8,30.35,East,90,1.3,1.3,82,0.00,,,0.00,WUHU216HW,2013-05-06 13:59:00,
2013-05-06 09:00:00,53.1,47.8,30.35,East,90,1.3,1.3,82,0.00,,,0.00,WUHU216HW,2013-05-06 14:00:00,
2013-05-06 09:05:00,53.1,47.8,30.35,East,90,1.3,1.3,82,0.00,,,0.00,WUHU216HW,2013-05-06 14:05:00,
2013-05-06 09:30:00,55.4,49.0,30.35,North,0,0.9,0.9,79,0.00,,,0.00,WUHU216HW,2013-05-06 14:30:00,
2013-05-06 09:35:00,55.4,49.0,30.35,North,0,0.9,0.9,79,0.00,,,0.00,WUHU216HW,2013-05-06 14:35:00,
2013-05-06 09:59:00,57.4,50.2,30.35,WSW,248,2.5,2.5,77,0.00,,,0.00,WUHU216HW,2013-05-06 14:59:00,
2013-05-06 10:00:00,57.4,50.2,30.35,WSW,248,2.5,2.5,77,0.00,,,0.00,WUHU216HW,2013-05-06 15:00:00,
2013-05-06 10:05:00,57.4,50.2,30.35,WSW,248,2.5,2.5,77,0.00,,,0.00,WUHU216HW,2013-05-06 15:05:00,
2013-05-06 10:30:00,59.9,51.3,30.34,NNW,338,0.4,0.4,73,0.00,,,0.00,WUHU216HW,2013-05-06 15:30:00,
2013-05-06 10:35:00,59.9,51.3,30.34,NNW,338,0.4,0.4,73,0.00,,,0.00,WUHU216HW,2013-05-06 15:35:00,
2013-05-06 10:59:00,61.9,52.1,30.34,NNE,23,3.1,3.1,70,0.00,,,0.00,WUHU216HW,2013-05-06 15:59:00,
2013-05-06 11:00:00,61.9,52.1,30.34,NNE,23,3.1,3.1,70,0.00,,,0.00,WUHU216HW,2013-05-06 16:00:00,
2013-05-06 11:05:00,61.9,52.1,30.34,NNE,23,3.1,3.1,70,0.00,,,0.00,WUHU216HW,2013-05-06 16:05:00,
2013-05-06 11:30:00,63.0,52.3,30.34,East,90,0.0,0.0,68,0.00,,,0.00,WUHU216HW,2013-05-06 16:30:00,
2013-05-06 11:35:00,63.0,52.3,30.34,East,90,0.0,0.0,68,0.00,,,0.00,WUHU216HW,2013-05-06 16:35:00,
2013-05-06 11:59:00,64.8,52.8,30.33,NE,45,4.0,4.0,65,0.00,,,0.00,WUHU216HW,2013-05-06 16:59:00,
2013-05-06 12:00:00,64.8,52.8,30.33,NE,45,4.0,4.0,65,0.00,,,0.00,WUHU216HW,2013-05-06 17:00:00,
2013-05-06 12:05:00,64.8,52.8,30.33,NE,45,4.0,4.0,65,0.00,,,0.00,WUHU216HW,2013-05-06 17:05:00,
2013-05-06 12:30:00,65.9,52.9,30.33,NE,45,0.4,0.4,63,0.00,,,0.00,WUHU216HW,2013-05-06 17:30:00,
2013-05-06 12:35:00,65.9,52.9,30.33,NE,45,0.4,0.4,63,0.00,,,0.00,WUHU216HW,2013-05-06 17:35:00,
2013-05-06 12:59:00,67.0,53.1,30.32,NE,45,4.7,4.7,61,0.00,,,0.00,WUHU216HW,2013-05-06 17:59:00,
2013-05-06 13:00:00,67.0,53.1,30.32,NE,45,4.7,4.7,61,0.00,,,0.00,WUHU216HW,2013-05-06 18:00:00,
2013-05-06 13:05:00,67.0,53.1,30.32,NE,45,4.7,4.7,61,0.00,,,0.00,WUHU216HW,2013-05-06 18:05:00,
2013-05-06 13:30:00,68.0,52.7,30.31,NW,315,2.5,2.5,58,0.00,,,0.00,WUHU216HW,2013-05-06 18:30:00,
2013-05-06 13:35:00,68.0,52.7,30.31,NW,315,2.5,2.5,58,0.00,,,0.00,WUHU216HW,2013-05-06 18:35:00,
2013-05-06 14:00:00,70.7,54.3,30.30,SW,225,2.7,2.7,56,0.00,,,0.00,WUHU216HW,2013-05-06 19:00:00,
2013-05-06 14:05:00,70.7,54.3,30.30,SW,225,2.7,2.7,56,0.00,,,0.00,WUHU216HW,2013-05-06 19:05:00,
2013-05-06 14:30:00,71.6,54.0,30.29,South,180,4.0,4.0,54,0.00,,,0.00,WUHU216HW,2013-05-06 19:30:00,
2013-05-06 14:35:00,71.6,54.0,30.29,South,180,4.0,4.0,54,0.00,,,0.00,WUHU216HW,2013-05-06 19:35:00,
2013-05-06 15:00:00,72.7,54.6,30.29,South,180,3.8,3.8,53,0.00,,,0.00,WUHU216HW,2013-05-06 20:00:00,
2013-05-06 15:05:00,72.7,54.6,30.29,South,180,3.8,3.8,53,0.00,,,0.00,WUHU216HW,2013-05-06 20:05:00,
2013-05-06 15:30:00,73.8,54.0,30.28,WNW,293,2.7,2.7,50,0.00,,,0.00,WUHU216HW,2013-05-06 20:30:00,
2013-05-06 15:35:00,73.8,54.0,30.28,WNW,293,2.7,2.7,50,0.00,,,0.00,WUHU216HW,2013-05-06 20:35:00,
2013-05-06 16:00:00,73.6,53.2,30.27,East,90,1.6,1.6,49,0.00,,,0.00,WUHU216HW,2013-05-06 21:00:00,
2013-05-06 16:05:00,73.6,53.2,30.27,East,90,1.6,1.6,49,0.00,,,0.00,WUHU216HW,2013-05-06 21:05:00,
2013-05-06 16:30:00,73.8,52.2,30.26,West,270,2.2,2.2,47,0.00,,,0.00,WUHU216HW,2013-05-06 21:30:00,
2013-05-06 16:35:00,73.8,52.2,30.26,West,270,2.2,2.2,47,0.00,,,0.00,WUHU216HW,2013-05-06 21:35:00,
2013-05-06 16:59:00,74.9,53.3,30.26,SSW,203,0.0,0.0,47,0.00,,,0.00,WUHU216HW,2013-05-06 21:59:00,
2013-05-06 17:00:00,74.9,53.3,30.26,SSW,203,0.0,0.0,47,0.00,,,0.00,WUHU216HW,2013-05-06 22:00:00,
2013-05-06 17:05:00,74.9,53.3,30.26,SSW,203,0.0,0.0,47,0.00,,,0.00,WUHU216HW,2013-05-06 22:05:00,
2013-05-06 17:30:00,74.7,51.8,30.26,WSW,248,3.6,3.6,45,0.00,,,0.00,WUHU216HW,2013-05-06 22:30:00,
2013-05-06 17:35:00,74.7,51.8,30.26,WSW,248,3.6,3.6,45,0.00,,,0.00,WUHU216HW,2013-05-06 22:35:00,
2013-05-06 17:59:00,74.9,53.3,30.26,SSW,203,2.5,2.5,47,0.00,,,0.00,WUHU216HW,2013-05-06 22:59:00,
2013-05-06 18:00:00,74.9,53.3,30.26,SSW,203,2.5,2.5,47,0.00,,,0.00,WUHU216HW,2013-05-06 23:00:00,
2013-05-06 18:05:00,74.9,53.3,30.26,SSW,203,2.5,2.5,47,0.00,,,0.00,WUHU216HW,2013-05-06 23:05:00,
2013-05-06 18:30:00,76.1,53.2,30.25,SSW,203,1.1,1.1,45,0.00,,,0.00,WUHU216HW,2013-05-06 23:30:00,
2013-05-06 18:35:00,76.1,53.2,30.25,SSW,203,1.1,1.1,45,0.00,,,0.00,WUHU216HW,2013-05-06 23:35:00,
2013-05-06 18:59:00,81.4,55.4,30.25,North,0,0.9,0.9,41,0.00,,,0.00,WUHU216HW,2013-05-06 23:59:00,
2013-05-06 19:00:00,81.4,55.4,30.25,North,0,0.9,0.9,41,0.00,,,0.00,WUHU216HW,2013-05-07 00:00:00,
2013-05-06 19:05:00,81.4,55.4,30.25,North,0,0.9,0.9,41,0.00,,,0.00,WUHU216HW,2013-05-07 00:05:00,
2013-05-06 19:30:00,82.8,54.5,30.25,WNW,293,0.0,0.0,38,0.00,,,0.00,WUHU216HW,2013-05-07 00:30:00,
2013-05-06 19:35:00,82.8,54.5,30.25,WNW,293,0.0,0.0,38,0.00,,,0.00,WUHU216HW,2013-05-07 00:35:00,
2013-05-06 19:59:00,81.4,52.5,30.25,South,180,0.0,0.0,37,0.00,,,0.00,WUHU216HW,2013-05-07 00:59:00,
2013-05-06 20:00:00,81.4,52.5,30.25,South,180,0.0,0.0,37,0.00,,,0.00,WUHU216HW,2013-05-07 01:00:00,
2013-05-06 20:05:00,81.4,52.5,30.25,South,180,0.0,0.0,37,0.00,,,0.00,WUHU216HW,2013-05-07 01:05:00,
2013-05-06 20:30:00,75.6,49.7,30.25,SSW,203,2.9,2.9,40,0.00,,,0.00,WUHU216HW,2013-05-07 01:30:00,
2013-05-06 20:35:00,75.6,49.7,30.25,SSW,203,2.9,2.9,40,0.00,,,0.00,WUHU216HW,2013-05-07 01:35:00,
2013-05-06 20:59:00,71.8,48.6,30.25,SW,225,0.7,0.7,44,0.00,,,0.00,WUHU216HW,2013-05-07 01:59:00,
2013-05-06 21:00:00,71.8,48.6,30.25,SW,225,0.7,0.7,44,0.00,,,0.00,WUHU216HW,2013-05-07 02:00:00,
2013-05-06 21:05:00,71.8,48.6,30.25,SW,225,0.7,0.7,44,0.00,,,0.00,WUHU216HW,2013-05-07 02:05:00,
2013-05-06 21:30:00,67.7,47.3,30.26,SW,225,0.9,0.9,48,0.00,,,0.00,WUHU216HW,2013-05-07 02:30:00,
2013-05-06 21:35:00,67.7,47.3,30.26,SW,225,0.9,0.9,48,0.00,,,0.00,WUHU216HW,2013-05-07 02:35:00,
2013-05-06 21:59:00,65.5,46.9,30.27,SSW,203,1.3,1.3,51,0.00,,,0.00,WUHU216HW,2013-05-07 02:59:00,
2013-05-06 22:00:00,65.5,46.9,30.27,SSW,203,1.3,1.3,51,0.00,,,0.00,WUHU216HW,2013-05-07 03:00:00,
2013-05-06 22:05:00,65.5,46.9,30.27,SSW,203,1.3,1.3,51,0.00,,,0.00,WUHU216HW,2013-05-07 03:05:00,
2013-05-06 22:30:00,63.2,46.2,30.28,SW,225,0.0,0.0,54,0.00,,,0.00,WUHU216HW,2013-05-07 03:30:00,
2013-05-06 22:35:00,63.2,46.2,30.28,SW,225,0.0,0.0,54,0.00,,,0.00,WUHU216HW,2013-05-07 03:35:00,
2013-05-06 23:00:00,61.7,46.8,30.28,SW,225,0.0,0.0,58,0.00,,,0.00,WUHU216HW,2013-05-07 04:00:00,
2013-05-06 23:01:00,61.7,46.8,30.28,SW,225,0.0,0.0,58,0.00,,,0.00,WUHU216HW,2013-05-07 04:01:00,
2013-05-06 23:06:00,61.7,46.8,30.28,SW,225,0.0,0.0,58,0.00,,,0.00,WUHU216HW,2013-05-07 04:06:00,
2013-05-06 23:30:00,59.9,46.9,30.29,WSW,248,0.0,0.0,62,0.00,,,0.00,WUHU216HW,2013-05-07 04:30:00,
2013-05-06 23:35:00,59.9,46.9,30.29,WSW,248,0.0,0.0,62,0.00,,,0.00,WUHU216HW,2013-05-07 04:35:00,
2013-05-06 23:59:00,59.0,46.5,30.28,SW,225,1.8,1.8,63,0.00,,,0.00,WUHU216HW,2013-05-07 04:59:00,